GW0464 Weather Reports


time (UTC)temp
F
wind
direction
speed
knots
gust
knots
rain 1hr
in
rain 24hr
in
rain mn
in
humidity
%
barometer
mb
20260507094600 81 51 1.7 6.1 0.00 0.00 0.00 87 1007.2
20260507093053 81 21 0.9 2.6 0.00 0.00 0.00 87 1007.2
20260507091559 81 74 0.9 2.6 0.00 0.00 0.00 87 1006.9
20260507090108 81 44 0.0 2.6 0.00 0.00 0.00 88 1006.9
20260507084548 82 55 1.7 4.3 0.00 0.00 0.00 88 1006.8
20260507083048 82 44 0.0 4.3 0.00 0.00 0.00 87 1006.8
20260507081557 82 15 0.9 4.3 0.00 0.00 0.00 88 1006.8
20260507080055 81 35 1.7 2.6 0.00 0.00 0.00 91 1007.2
20260507074547 81 339 0.0 1.7 0.00 0.00 0.00 90 1007.5
20260507073100 81 340 0.0 2.6 0.00 0.00 0.00 90 1007.4
20260507071549 82 316 0.9 2.6 0.00 0.00 0.00 89 1007.4
20260507070134 83 321 0.9 2.6 0.00 0.00 0.00 86 1007.4
20260507064551 84 134 0.0 3.5 0.00 0.00 0.00 85 1007.4
20260507063100 84 0 0.0 1.7 0.00 0.00 0.00 85 1007.4
20260507061553 84 0 0.9 2.6 0.00 0.00 0.00 85 1007.5
20260507060050 85 103 0.9 3.5 0.00 0.00 0.00 84 1007.3
20260507054557 85 49 1.7 6.1 0.00 0.00 0.00 84 1007.6
20260507053053 86 96 0.9 5.2 0.00 0.00 0.00 82 1007.5
20260507051550 86 94 0.0 2.6 0.00 0.00 0.00 82 1007.5
20260507050053 86 67 1.7 3.5 0.00 0.00 0.00 82 1007.3
20260507044551 87 118 2.6 6.1 0.00 0.00 0.00 82 1007.2
20260507043048 86 63 1.7 6.1 0.00 0.00 0.00 82 1007.1
20260507041553 86 136 2.6 6.1 0.00 0.00 0.00 82 1007.2
20260507040055 87 90 1.7 5.2 0.00 0.00 0.00 82 1006.9
20260507034550 87 65 1.7 5.2 0.00 0.00 0.00 81 1007.0
20260507033050 87 92 0.9 4.3 0.00 0.00 0.00 81 1007.0
20260507031547 88 35 1.7 6.1 0.00 0.00 0.00 79 1007.0
20260507030058 89 87 1.7 6.1 0.00 0.00 0.00 78 1007.0
20260507024550 89 62 1.7 6.1 0.00 0.00 0.00 78 1006.6
20260507023052 90 0 1.7 5.2 0.00 0.00 0.00 78 1006.6
20260507021607 90 107 1.7 6.1 0.00 0.00 0.00 77 1006.5
20260507020053 91 93 1.7 5.2 0.00 0.00 0.00 77 1006.4
20260507014608 91 122 1.7 6.1 0.00 0.00 0.00 77 1006.0
20260507013052 91 98 1.7 5.2 0.00 0.00 0.00 77 1005.8
20260507011547 92 80 1.7 3.5 0.00 0.00 0.00 75 1005.7
20260507004549 93 86 1.7 5.2 0.00 0.00 0.00 71 1005.4
20260507003047 94 204 2.6 5.2 0.00 0.00 0.00 70 1005.2
20260507001551 95 95 1.7 5.2 0.00 0.00 0.00 69 1005.1
20260507000047 96 145 2.6 7.0 0.00 0.00 0.00 68 1005.1
20260506234548 97 109 3.5 7.8 0.00 0.00 0.00 67 1005.1
20260506233054 97 121 2.6 7.8 0.00 0.00 0.00 67 1005.1
20260506231547 97 65 3.5 9.6 0.00 0.00 0.00 69 1005.0
20260506224547 98 84 4.3 8.7 0.00 0.00 0.00 69 1004.8
20260506223052 98 93 3.5 8.7 0.00 0.00 0.00 69 1004.8
20260506221549 99 61 2.6 9.6 0.00 0.00 0.00 69 1004.8
20260506220052 98 127 5.2 10.4 0.00 0.00 0.00 69 1004.9
20260506214551 98 85 3.5 12.2 0.00 0.00 0.00 70 1004.9
20260506213048 99 116 4.3 8.7 0.00 0.00 0.00 70 1005.0
20260506211548 99 100 4.3 9.6 0.00 0.00 0.00 71 1005.2
20260506210050 99 130 4.3 9.6 0.00 0.00 0.00 71 1005.3
20260506204550 98 84 3.5 9.6 0.00 0.00 0.00 71 1005.5
20260506203053 98 51 5.2 9.6 0.00 0.00 0.00 71 1005.6
20260506201607 98 35 1.7 8.7 0.00 0.00 0.00 70 1005.9
20260506200048 98 89 3.5 10.4 0.00 0.00 0.00 70 1006.3
20260506194552 98 327 5.2 9.6 0.00 0.00 0.00 71 1006.5
20260506193053 97 15 3.5 9.6 0.00 0.00 0.00 70 1006.8
20260506191553 97 13 3.5 9.6 0.00 0.00 0.00 72 1007.1
20260506190050 96 24 7.0 12.2 0.00 0.00 0.00 74 1007.5
20260506184554 96 30 5.2 10.4 0.00 0.00 0.00 73 1007.9
20260506183048 96 87 7.0 11.3 0.00 0.00 0.00 75 1008.1
20260506181549 94 32 5.2 11.3 0.00 0.00 0.00 77 1008.2
20260506180049 95 33 3.5 10.4 0.00 0.00 0.00 76 1008.5
20260506174546 94 27 4.3 9.6 0.00 0.00 0.00 76 1008.7
20260506173105 93 63 6.1 10.4 0.00 0.00 0.00 78 1008.9
20260506171556 93 350 3.5 7.8 0.00 0.00 0.00 79 1009.0
20260506170053 93 117 2.6 7.8 0.00 0.00 0.00 78 1009.1
20260506164547 91 65 1.7 7.0 0.00 0.00 0.00 79 1009.3
20260506163103 91 63 2.6 7.8 0.00 0.00 0.00 80 1009.4
20260506161554 90 71 2.6 8.7 0.00 0.00 0.00 82 1009.4
20260506160051 89 140 2.6 7.0 0.00 0.00 0.00 83 1009.6
20260506154600 89 68 2.6 6.1 0.00 0.00 0.00 83 1009.6
20260506153049 88 24 1.7 6.1 0.00 0.00 0.00 84 1009.7
20260506151551 86 113 3.5 7.0 0.00 0.00 0.00 86 1009.8
20260506150048 86 64 1.7 7.0 0.00 0.00 0.00 86 1009.8
20260506144550 86 343 1.7 6.1 0.00 0.00 0.00 87 1009.7
20260506143051 84 88 2.6 8.7 0.00 0.00 0.00 88 1009.8
20260506141553 83 82 3.5 7.0 0.00 0.00 0.00 90 1009.8
20260506140059 82 109 3.5 8.7 0.00 0.00 0.00 91 1009.8
20260506134550 81 92 5.2 11.3 0.00 0.00 0.00 92 1009.6
20260506133059 81 122 3.5 9.6 0.00 0.00 0.00 92 1009.6
20260506131552 80 94 2.6 7.0 0.00 0.00 0.00 94 1009.6
20260506130056 80 99 2.6 6.1 0.00 0.00 0.00 94 1009.6
20260506124558 79 71 1.7 7.8 0.00 0.00 0.00 95 1009.5
20260506123055 79 109 2.6 7.0 0.00 0.00 0.00 95 1009.4
20260506121606 78 34 1.7 7.0 0.00 0.00 0.00 95 1009.3
20260506120107 78 132 2.6 7.8 0.00 0.00 0.00 95 1009.2
20260506114558 78 109 2.6 7.8 0.00 0.00 0.00 95 1009.1
20260506113051 79 5 2.6 7.8 0.00 0.00 0.00 95 1009.0
20260506111553 79 77 2.6 5.2 0.00 0.00 0.00 95 1008.9
20260506110050 79 325 1.7 7.8 0.00 0.00 0.00 95 1008.7
20260506104550 79 74 2.6 7.0 0.00 0.00 0.00 95 1008.6
20260506103052 79 63 2.6 6.1 0.00 0.00 0.00 94 1008.5
20260506101547 80 116 2.6 7.8 0.00 0.00 0.00 95 1008.5
20260506100055 80 90 0.9 5.2 0.00 0.00 0.00 95 1008.3